This demonstration page uses our WeatherBlox Daily Observations layout. Learn more.

Left ArrowRight Arrow

Hourly Observations for May 22, 2017

Temp ( °F °C ) Dew Point ( °F °C ) Humidity (%) Winds ( mph kmh ) Pressure ( in mb ) Visibility ( mi km ) Precip ( " mm )
12:56 am 00:56 Clear 56 13.3 44 6.9 65 65 SSE 5 7 30.09 1019 10 16 0.00 0.00
1:56 am 01:56 Clear 55 12.5 45 7 69 69 VRB 5 7 30.06 1018 10 16 0.00 0.00
2:56 am 02:56 Clear 54 12.3 42 5.7 64 64 VRB 3 6 30.04 1017 10 16 0.00 0.00
3:56 am 03:56 Clear 50 10.1 41 5.1 71 71 VRB 3 6 30.02 1017 10 16 0.00 0.00
4:56 am 04:56 Partly Cloudy 52 11 43 6.3 73 73 VRB 5 7 30.01 1016 10 16 0.00 0.00
5:56 am 05:56 Mostly Cloudy 52 11.1 47 8.1 82 82 VRB 5 7 29.99 1016 10 16 0.00 0.00
6:56 am 06:56 Mostly Cloudy 53 11.4 50 10 91 91 VRB 3 6 30.00 1016 10 16 0.00 0.00
7:57 am 07:57 Sunny 64 17.6 51 10.8 65 65 VRB 3 6 29.94 1014 10 16 0.00 0.00
9:13 am 09:13 Mostly Sunny 63 17 50 10 64 64 SW 8 13 29.91 1013 10 16 0.00 0.00
9:58 am 09:58 Mostly Sunny 61 16 50 10 68 68 W 7 11 29.91 1013 N/A 0.00 0.00
10:56 am 10:56 Sunny 65 18.4 51 10.7 61 61 SW 9 15 29.91 1013 10 16 0.00 0.00
11:56 am 11:56 Mostly Sunny 67 19.5 51 10.5 56 56 SSW 8 13 29.91 1013 10 16 0.00 0.00
12:56 pm 12:56 Partly Cloudy 70 21.3 51 10.4 50 50 SSW 13 20 29.88 1012 10 16 0.00 0.00
1:56 pm 13:56 Partly Cloudy 70 21.3 53 11.6 54 54 SSW 15 24 29.88 1012 10 16 0.00 0.00
2:56 pm 14:56 Partly Cloudy 71 21.4 53 11.4 53 53 SSW 17 28 29.85 1011 10 16 0.00 0.00
3:56 pm 15:56 Partly Cloudy 71 21.5 52 10.9 51 51 SSW 13 20 29.88 1012 10 16 0.00 0.00
4:41 pm 16:41 Partly Cloudy with Thunderstorms 70 21 52 11 53 53 SSW 16 26 29.85 1011 10 16 0.00 0.00
4:56 pm 16:56 Mostly Cloudy with Thunderstorms 70 20.9 50 10.1 50 50 SW 13 20 29.83 1010 10 16 0.00 0.00
4:57 pm 16:57 Mostly Cloudy 70 21 50 10 50 50 SW 10 17 29.83 1010 10 16 0.00 0.00
5:00 pm 17:00 Mostly Cloudy with Light Rain 70 21 52 11 53 53 WSW 10 17 29.80 1009 10 16 0.00 0.00
5:05 pm 17:05 Mostly Cloudy with Heavy Rain 68 20 54 12 60 60 SSW 13 20 29.84 1010 8 13 0.00 0.00
5:28 pm 17:28 Mostly Cloudy with Thunderstorms 66 19 52 11 60 60 SW 10 17 29.83 1010 10 16 0.00 0.00
5:31 pm 17:31 Cloudy with Thunderstorms 66 19 54 12 64 64 W 12 19 29.83 1010 10 16 0.00 0.00
5:45 pm 17:45 Cloudy with Strong Thunderstorms 61 16 55 13 83 83 WNW 5 7 29.83 1010 1 2 0.00 0.00
5:51 pm 17:51 Cloudy with Light Rain 61 16 54 12 77 77 SW 9 15 29.83 1010 4 6 0.00 0.00
5:56 pm 17:56 Cloudy with Light Rain 61 16.1 54 12.4 79 79 SW 9 15 29.83 1010 8 13 0.22 5.59
6:16 pm 18:16 Mostly Cloudy 61 16 55 13 83 83 SW 8 13 29.83 1010 10 16 0.00 0.00
6:56 pm 18:56 Mostly Cloudy 61 16.1 54 12.3 78 78 SW 7 11 29.83 1010 10 16 0.01 0.25
6:57 pm 18:57 Mostly Cloudy with Light Rain 61 16 54 12 77 77 SW 6 9 29.83 1010 10 16 0.00 0.00
7:09 pm 19:09 Cloudy 61 16 54 12 77 77 WSW 7 11 29.83 1010 10 16 0.00 0.00
7:26 pm 19:26 Cloudy with Light Rain 61 16 54 12 77 77 SW 5 7 29.83 1010 10 16 0.00 0.00
7:36 pm 19:36 Mostly Cloudy 61 16 54 12 77 77 SW 7 11 29.85 1011 10 16 0.00 0.00
7:56 pm 19:56 Cloudy 61 16.3 54 12.3 77 77 WSW 7 11 29.88 1012 10 16 0.00 0.03
8:56 pm 20:56 Mostly Cloudy 60 15.6 55 12.5 82 82 WSW 5 7 29.88 1012 10 16 0.00 0.00
9:56 pm 21:56 Clear 58 14.2 54 12.1 87 87 W 3 6 29.89 1012 10 16 0.00 0.00
10:56 pm 22:56 Clear 55 13 53 11.6 91 91 Calm 29.89 1012 10 16 0.00 0.00
11:56 pm 23:56 Clear 57 13.7 49 9.7 77 77 NNW 12 19 29.90 1013 10 16 0.00 0.00

Powered by AerisWeather